Regional Weather Roundup
Issued by NWS

Home | Current Version | Previous Version | Graphics & Text | Print | Product List | Glossary On
Versions: 1 2 3 4 5 6 7 8 9 10 11 12 13 14 15 16 17 18 19 20 21 22 23 24 25 26 27 28 29 30 31 32 33 34 35 36 37 38 39 40 41 42 43 44 45 46 47 48 49 50
496
ASUS43 KOAX 232310
RWRNE

WEATHER ROUNDUP FOR NEBRASKA
NATIONAL WEATHER SERVICE OMAHA NE
500 PM CST FRI FEB 23 2018

NOTES: SATELLITE DATA IS BEING USED TO AUGMENT CLOUD COVER ABOVE
       12000 FEET.
       "FAIR" INDICATES FEW OR NO CLOUDS BELOW 12,000 FEET WITH NO
       SIGNIFICANT WEATHER AND/OR OBSTRUCTIONS TO VISIBILITY.


NEZ001>004-019>022-054>056-240000-
NEBRASKA PANHANDLE

CITY           SKY/WX    TMP DP  RH WIND       PRES   REMARKS
SCOTTSBLUFF    SUNNY     26  16  65 E12       30.04F WCI  16
ALLIANCE       SUNNY     23  14  68 E7        30.05F WCI  15
CHADRON        SUNNY     20   9  62 NE6       30.09F WCI  12
GORDON         CLOUDY    21   9  61 SE5       30.10S WCI  14
KIMBALL        SUNNY     28  19  66 E12       29.98S WCI  18
SIDNEY         SUNNY     30  17  58 E14       30.02F WCI  19
$$

NEZ057>060-069>072-079>082-240000-
SOUTHWEST NEBRASKA

CITY           SKY/WX    TMP DP  RH WIND       PRES   REMARKS
NORTH PLATTE   SUNNY     25  17  72 E10       30.15F WCI  15
IMPERIAL       SUNNY     31  22  69 NE10      30.08F WCI  22
LEXINGTON      CLOUDY    27  22  82 NE7       30.18S WCI  20
MCCOOK         SUNNY     36  24  62 E13       30.11F WCI  27
OGALLALA       SUNNY     28  19  67 E10       30.09F WCI  19
$$

NEZ005>010-023>029-035>040-094-240000-
NORTH CENTRAL NEBRASKA

CITY           SKY/WX    TMP DP  RH WIND       PRES   REMARKS
VALENTINE      SUNNY     23  12  62 S3        30.20R
AINSWORTH      MOSUNNY   22  14  73 CALM      30.19S
BROKEN BOW     SUNNY     24  15  68 N7        30.18F WCI  16
O`NEILL        MOSUNNY   20  15  81 CALM      30.25S
ORD            SUNNY     26  18  71 E5        30.21F WCI  20
THEDFORD       SUNNY     27  17  67 NE5       30.16S WCI  21
$$

NEZ041-046>049-061>064-073>077-083>087-240000-
SOUTH CENTRAL NEBRASKA

CITY           SKY/WX    TMP DP  RH WIND       PRES   REMARKS
GRAND ISLAND   CLOUDY    25  20  81 NE12      30.23F WCI  14
AURORA         CLOUDY    27  23  84 NE8       30.22F WCI  19
HASTINGS       CLOUDY    27  21  78 NE10      30.21F WCI  17
HEBRON         PTSUNNY   32  27  79 NE8       30.23S WCI  25
HOLDREGE       SUNNY     30  23  75 NE10      30.17S WCI  21
KEARNEY        CLOUDY    26  21  81 N10       30.20F WCI  16
YORK           SUNNY     28  25  86 N10       30.23F WCI  19
$$

NEZ011>018-030>034-042>045-240000-
NORTHEAST NEBRASKA

CITY           SKY/WX    TMP DP  RH WIND       PRES   REMARKS
NORFOLK        SUNNY     24  18  77 NE9       30.25F WCI  14
ALBION         MOSUNNY   26  20  78 N7        30.25S WCI  18
BLAIR          CLOUDY    27  23  85 N8        30.27F WCI  19
COLUMBUS       MOSUNNY   26  21  81 N8        30.28F WCI  18
FREMONT        PTSUNNY   28  22  78 N7        30.29S WCI  21
TEKAMAH        CLOUDY    25  20  81 NW9       30.31S WCI  15
WAYNE          CLOUDY    22  21  96 NW6       30.29S WCI  15
$$

NEZ050>053-065>068-078-088>093-240000-
SOUTHEAST NEBRASKA

CITY           SKY/WX    TMP DP  RH WIND       PRES   REMARKS
LINCOLN        SUNNY     30  23  75 NE13      30.27F WCI  20
OMAHA EPPLEY   MOSUNNY   27  22  81 N13       30.29F WCI  16
BEATRICE       PTSUNNY   33  28  82 NE7       30.25R WCI  27
FALLS CITY     CLOUDY    36  27  69 N5        30.26R WCI  32
NEBRASKA CITY  CLOUDY    32  30  92 NE9       30.25F WCI  25
PLATTSMOUTH    MOSUNNY   31  26  81 N5        30.26F WCI  26
$$

NEZ044-045-051>053-067-240000-
OMAHA AREA

CITY           SKY/WX    TMP DP  RH WIND       PRES   REMARKS
OMAHA EPPLEY   MOSUNNY   27  22  81 N13       30.29F WCI  16
BLAIR          CLOUDY    27  23  85 N8        30.27F WCI  19
FREMONT        PTSUNNY   28  22  78 N7        30.29S WCI  21
MILLARD        CLOUDY    29  23  78 N8        30.29S WCI  21
OFFUTT AFB     MOSUNNY   29  24  79 N10       30.27F WCI  20
PLATTSMOUTH    MOSUNNY   31  26  81 N5        30.26F WCI  26
WAHOO          FAIR      28  22  79 N12       30.27F WCI  17
$$




USA.gov is the U.S. government's official web portal to all federal, state and local government web resources and services.